Weather History for Sandspit, BC

Change the Weather History Date:

Tuesday, June 18, 2013

  Actual Average Record
Temperature  
Mean Temperature 55 °F -  
Max Temperature 58 °F 59 °F 73 °F (2004)
Min Temperature 52 °F 50 °F 42 °F (2008)
Degree Days  
Heating Degree Days 10    
Growing Degree Days 5 (Base 50)    
Moisture  
Dew Point 53 °F    
Average Humidity 93    
Maximum Humidity 100    
Minimum Humidity 82    
Precipitation  
Precipitation 0.12 in 0.13 in - ()
Sea Level Pressure  
Sea Level Pressure 29.95 in    
Wind  
Wind Speed 7 mph ()    
Max Wind Speed 14 mph    
Max Gust Speed -    
Visibility 7.4 miles    
Events Rain    
Averages and records for this station are not official NWS values.
T = Trace of Precipitation, MM = Missing Value Source: Averaged Metar Reports

Daily Weather History Graph

Daily Weather History Graph

Search for Another Location

Airport:

Trip Planner

Search our weather history database for the weather conditions in past years. The results will help you decide how hot, cold, wet, or windy it might be!

Date:

Astronomy

Jun. 18, 2013 Rise Set
Actual Time 5:19 AM PDT 10:17 PM PDT
Civil Twilight 4:26 AM PDT 11:10 PM PDT
Nautical Twilight 2:54 AM PDT 12:42 AM PDT
Astronomical Twilight Sun does not rise Sun does not rise
Moon 4:37 PM PDT (6/18) 2:10 AM PDT (6/18)
Length of Visible Light 18h 43m
Length of Day
16h 58m
Waxing Gibbous, 72% of the Moon is Illuminated
Jun 18
Waxing Gibbous
Jun 23
Full
Jun 29
Last Quarter
Jul 8
New
Jul 15
First Quarter

Hourly Weather History & Observations

Time (PDT) Temp. Dew Point Humidity Pressure Visibility Wind Dir Wind Speed Gust Speed Precip Events Conditions
12:00 AM 55.4 °F 51.8 °F 88% 29.97 in 9.0 mi WSW 11.5 mph - N/A   Overcast
12:19 AM 55.4 °F 50.0 °F 82% 29.96 in 9.0 mi West 11.5 mph - N/A Rain Light Rain
12:40 AM 53.6 °F 50.0 °F 88% 29.96 in 9.0 mi West 11.5 mph - N/A   Overcast
12:52 AM 53.6 °F 51.8 °F 94% 29.96 in 9.0 mi West 11.5 mph - N/A Rain Light Rain
1:00 AM 53.6 °F 51.8 °F 94% 29.96 in 9.0 mi West 10.4 mph - N/A Rain Light Rain
1:03 AM 53.6 °F 50.0 °F 88% 29.96 in 9.0 mi West 11.5 mph - N/A   Overcast
1:08 AM 53.6 °F 50.0 °F 88% 29.96 in 9.0 mi West 11.5 mph - N/A Rain Light Rain
1:29 AM 53.6 °F 51.8 °F 94% 29.95 in 9.0 mi West 11.5 mph - N/A   Overcast
1:33 AM 53.6 °F 51.8 °F 94% 29.95 in 9.0 mi West 12.7 mph - N/A Rain Light Rain
1:39 AM 53.6 °F 51.8 °F 94% 29.95 in 5.0 mi West 13.8 mph - N/A Rain Light Rain
1:50 AM 53.6 °F 50.0 °F 88% 29.95 in 6.0 mi West 13.8 mph - N/A Rain Light Rain
2:00 AM 53 °F 51 °F 89% 29.94 in - West 2.3 mph - -  
2:00 AM 53.6 °F 50.0 °F 88% 29.95 in 9.0 mi WSW 11.5 mph - N/A Rain Light Rain
2:08 AM 53.6 °F 50.0 °F 88% 29.94 in 9.0 mi West 11.5 mph - N/A   Overcast
3:00 AM 53.6 °F 50.0 °F 88% 29.94 in 9.0 mi West 12.7 mph - N/A   Overcast
3:33 AM 53.6 °F 51.8 °F 94% 29.94 in 9.0 mi West 11.5 mph - N/A   Overcast
4:00 AM 53.6 °F 50.0 °F 88% 29.94 in 9.0 mi West 10.4 mph - N/A   Overcast
5:00 AM 53 °F 51 °F 91% 29.93 in - West 1.2 mph - -  
5:00 AM 53.6 °F 50.0 °F 88% 29.94 in 9.0 mi West 10.4 mph - N/A   Overcast
6:00 AM 53.6 °F 51.8 °F 94% 29.93 in 9.0 mi West 9.2 mph - N/A   Overcast
7:00 AM 53.6 °F 51.8 °F 94% 29.93 in 9.0 mi WSW 10.4 mph - N/A   Overcast
8:00 AM 54 °F 52 °F 90% 29.91 in - West 2.3 mph - -  
8:00 AM 53.6 °F 51.8 °F 94% 29.92 in 9.0 mi West 6.9 mph - N/A   Overcast
8:46 AM 53.6 °F 51.8 °F 94% 29.92 in 9.0 mi West 10.4 mph - N/A   Overcast
9:00 AM 53.6 °F 51.8 °F 94% 29.93 in 9.0 mi West 8.1 mph - N/A   Overcast
9:22 AM 53.6 °F 51.8 °F 94% 29.93 in 5.0 mi West 6.9 mph - N/A   Overcast
9:35 AM 53.6 °F 51.8 °F 94% 29.93 in 4.0 mi West 5.8 mph - N/A Rain Light Rain
9:43 AM 53.6 °F 53.6 °F 100% 29.93 in 6.0 mi WSW 5.8 mph - N/A Rain Light Rain
10:00 AM 53.6 °F 53.6 °F 100% 29.93 in 6.0 mi West 5.8 mph - N/A Rain Light Rain
11:00 AM 55 °F 53 °F 92% 29.93 in - West 1.2 mph - -  
11:00 AM 54.7 °F 53.2 °F 95% 29.94 in 9.0 mi West 3.5 mph - N/A Rain Light Rain
11:07 AM 54.5 °F 53.1 °F 95% 29.94 in 5.0 mi West 3.5 mph - 0.01 in Rain Light Rain
11:19 AM 54.5 °F 53.2 °F 96% 29.94 in 6.0 mi West 4.6 mph - 0.01 in Rain Light Rain
11:52 AM 54.9 °F 53.2 °F 94% 29.94 in 7.0 mi Calm Calm - 0.01 in Rain Light Rain
11:56 AM 55.0 °F 53.6 °F 95% 29.94 in 5.0 mi Calm Calm - 0.01 in Rain Light Rain
12:00 PM 55.2 °F 53.4 °F 94% 29.94 in 4.0 mi Variable 2.3 mph - 0.02 in Rain Light Rain
12:08 PM 55.0 °F 53.1 °F 93% 29.95 in 6.0 mi NE 2.3 mph - N/A Rain Light Rain
12:12 PM 55.2 °F 54.0 °F 96% 29.95 in 5.0 mi ENE 2.3 mph - N/A Rain Light Rain
12:18 PM 55.2 °F 53.8 °F 95% 29.95 in 5.0 mi ENE 2.3 mph - 0.01 in Rain Light Rain
12:22 PM 55.0 °F 53.2 °F 94% 29.95 in 6.0 mi East 3.5 mph - 0.01 in Rain Light Rain
12:25 PM 54.9 °F 53.2 °F 94% 29.95 in 6.0 mi East 3.5 mph - 0.01 in Rain Light Rain
12:27 PM 54.7 °F 53.2 °F 95% 29.95 in 5.0 mi East 3.5 mph - 0.02 in Rain Rain
12:43 PM 55.2 °F 54.1 °F 96% 29.95 in 6.0 mi ESE 5.8 mph - 0.04 in Rain Light Rain
1:00 PM 55.0 °F 53.8 °F 96% 29.96 in 10.0 mi ESE 6.9 mph - 0.05 in Rain Light Rain
1:42 PM 54.7 °F 53.6 °F 96% 29.97 in 5.0 mi ESE 8.1 mph - 0.02 in Rain Light Rain
1:51 PM 54.7 °F 53.6 °F 96% 29.97 in 4.0 mi ESE 8.1 mph - 0.03 in Rain Rain
2:00 PM 54 °F 53 °F 95% 29.96 in - ESE 5.8 mph - -  
2:00 PM 54.7 °F 53.8 °F 97% 29.97 in 4.0 mi ESE 8.1 mph - 0.04 in Rain Light Rain
2:21 PM 54.5 °F 53.4 °F 96% 29.97 in 6.0 mi ESE 9.2 mph - 0.01 in Rain Light Rain
2:22 PM 54.7 °F 53.6 °F 96% 29.97 in 6.0 mi ESE 9.2 mph - 0.01 in Rain Light Rain
2:59 PM 55.4 °F 53.6 °F 94% 29.97 in 9.0 mi ESE 8.1 mph - N/A   Overcast
3:00 PM 55.4 °F 53.6 °F 94% 29.97 in 8.0 mi SE 8.1 mph - N/A   Overcast
3:24 PM 55.4 °F 53.6 °F 94% 29.97 in 7.0 mi ESE 6.9 mph - N/A   Overcast
3:55 PM 55.4 °F 53.6 °F 94% 29.97 in 5.0 mi ESE 6.9 mph - N/A   Overcast
4:00 PM 55.4 °F 53.6 °F 94% 29.97 in 5.0 mi ESE 6.9 mph - N/A   Overcast
4:02 PM 55.4 °F 53.6 °F 94% 29.97 in 6.0 mi ESE 8.1 mph - N/A   Overcast
5:00 PM 56 °F 54 °F 91% 29.96 in - SSE 3.5 mph - -  
5:00 PM 55.4 °F 53.6 °F 94% 29.97 in 9.0 mi South 3.5 mph - N/A   Overcast
5:10 PM 57.2 °F 53.6 °F 88% 29.97 in 9.0 mi South 3.5 mph - N/A   Overcast
5:21 PM 57.2 °F 53.6 °F 88% 29.97 in 8.0 mi Variable 2.3 mph - N/A   Overcast
6:00 PM 55.4 °F 53.6 °F 94% 29.97 in 9.0 mi ESE 10.4 mph - N/A   Overcast
6:20 PM 55.4 °F 55.4 °F 100% 29.96 in 5.0 mi SE 6.9 mph - N/A   Overcast
6:23 PM 55.4 °F 55.4 °F 100% 29.97 in 6.0 mi SE 6.9 mph - N/A   Overcast
7:00 PM 57.2 °F 53.6 °F 88% 29.97 in 9.0 mi Variable 2.3 mph - N/A   Overcast
8:00 PM 57 °F 54 °F 88% 29.97 in - East 2.3 mph - -  
8:00 PM 57.2 °F 53.6 °F 88% 29.98 in 9.0 mi SE 3.5 mph - N/A   Overcast
8:32 PM 57.2 °F 53.6 °F 88% 29.98 in 9.0 mi Calm Calm - N/A   Scattered Clouds
9:00 PM 57.2 °F 54.1 °F 89% 29.98 in 10.0 mi Variable 2.3 mph - N/A   Partly Cloudy
10:00 PM 56.1 °F 53.8 °F 92% 29.99 in 10.0 mi SSW 3.5 mph - N/A   Overcast
11:00 PM 55 °F 53 °F 92% 29.98 in - WSW 1.2 mph - -  
11:00 PM 55.8 °F 53.4 °F 92% 29.99 in 10.0 mi WSW 4.6 mph - N/A   Overcast